[[{"header":{"parameterUnit":"m.s-1","parameterCategory":1,"la1":30.2991,"la2":30.254,"lo1":-89.0895,"lo2":-89.0444,"dy":0.0017,"dx":0.0017,"nx":28,"ny":28,"refTime":"2025-05-20T03:00:00:Z","depth":0,"parameterNumber":2,"parameterNumberName":"U-component_of_WINDS"},"data":[0,0,0,0,0,0,0,0,0,0,0,0,0,0,0,0,0,0,0,0,0,0,0,0,0,0,0,0,0,0,0,0,0,0,0,0,0,0,0,0,0,0,0,0,0,0,0,0,0,0,0,0,0,0,0,0,0,0,1.2944,1.2946,0,1.313,1.3132,1.3134,1.3155,1.3153,1.3151,1.315,1.3345,1.3352,1.3359,0,0,0,0,0,0,0,0,0,0,0,0,0,1.2609,1.2615,1.2943,1.2946,1.2948,1.313,1.3132,1.3135,1.3156,1.3153,1.3151,1.3149,1.3343,1.3351,1.3359,0,0,0,0,0,0,0,0,0,0,0,0,0,1.2771,1.2617,1.2943,1.298,1.2985,1.3129,1.3133,1.3136,1.3156,1.3153,1.315,1.3148,1.334,1.335,1.336,1.3481,0,0,1.3392,1.3397,0,0,0,0,0,0,0,0,1.2761,1.2783,1.2972,1.2978,1.2984,1.3116,1.3086,1.3252,1.3157,1.3091,1.315,1.3146,1.3271,1.3287,1.3329,1.3491,1.3499,1.3393,1.3399,1.3404,1.3407,0,0,0,0,0,0,0,1.275,1.2775,1.3017,1.2975,1.2982,1.2989,1.3009,1.3118,1.3195,1.3097,1.3099,1.312,1.3274,1.3319,1.3333,1.3502,1.3393,1.3402,1.3409,1.3413,1.3773,1.3776,0,0,0,0,0,0,1.2731,1.2765,1.3011,1.3023,1.2863,1.2997,1.3019,1.3077,1.3194,1.3209,1.3123,1.3121,1.3302,1.3321,1.334,1.349,1.3404,1.3414,1.342,1.377,1.3774,1.3777,0,0,0,0,0,0,1.2724,1.2753,1.3004,1.2895,1.2927,1.3006,1.307,1.3082,1.3126,1.3213,1.3228,1.3153,1.3301,1.3326,1.3446,1.3497,1.3418,1.3428,1.3766,1.3771,1.3775,1.3789,0,0,0,0,0,0,1.2714,1.275,1.2796,1.2896,1.2933,1.3105,1.3073,1.3088,1.3144,1.3143,1.3246,1.3261,1.33,1.343,1.3456,1.351,1.3436,1.3762,1.3768,1.3774,1.3784,1.3794,1.3802,0,0,0,0,0,1.2702,1.2793,1.2798,1.2828,1.2992,1.3108,1.3129,1.3172,1.3148,1.3195,1.3251,1.3257,1.3487,1.3442,1.3472,1.3529,1.3759,1.3766,1.3773,1.378,1.3792,1.3801,0,0,0,0,0,0,1.2699,1.2807,1.2814,1.2939,1.3014,1.3111,1.3172,1.3183,1.3267,1.3263,1.3314,1.3337,1.3455,1.3505,1.3453,1.3653,1.3621,1.3634,1.3616,1.3627,1.3636,1.3621,1.3445,0,0,0,0,0,1.2712,1.2797,1.2887,1.2989,1.3026,1.3093,1.3145,1.3171,1.3252,1.3284,1.3348,1.3427,1.3517,1.3575,1.3663,1.3792,1.3815,1.3846,1.3855,1.3861,1.3872,1.3944,1.3959,1.3802,1.3802,1.3801,0,0,1.2742,1.2811,1.2861,1.299,1.3051,1.3138,1.3119,1.3212,1.3278,1.3298,1.3415,1.3466,1.3557,1.3682,1.374,1.3727,1.3921,1.3871,1.3875,1.3883,1.3953,1.3968,1.3981,1.3807,1.3806,1.3805,0,0,1.2839,1.29,1.2992,1.3053,1.3146,1.3189,1.3211,1.3307,1.3341,1.3459,1.3476,1.3556,1.371,1.3774,1.3826,1.3949,1.3958,1.3977,1.4022,1.4091,1.4104,1.4115,1.4158,1.4173,1.3988,1.3988,1.3988,0,1.2864,1.2994,1.3038,1.313,1.3186,1.3208,1.3302,1.336,1.3477,1.3516,1.3499,1.3692,1.3755,1.3895,1.3925,1.3968,1.3995,1.3964,1.4098,1.411,1.4121,1.4163,1.4179,1.3989,1.3989,1.3989,1.3989,0,1.302,1.3111,1.3174,1.3285,1.3349,1.3441,1.3499,1.3559,1.3581,1.3626,1.3747,1.3823,1.3927,1.3962,1.3985,1.4106,1.4095,1.4088,1.4056,1.4137,1.4177,1.4193,1.3991,1.3991,1.399,1.399,0,0,1.3119,1.3253,1.3275,1.3326,1.343,1.3501,1.3596,1.3696,1.3746,1.3826,1.3907,1.4037,1.403,1.409,1.4121,1.4182,1.4273,1.4167,1.417,1.4183,1.4412,1.4415,1.4433,1.428,1.4284,1.4286,1.4404,0,1.3227,1.3394,1.3436,1.3579,1.3663,1.3686,1.3768,1.3842,1.3887,1.3967,1.4018,1.4109,1.4094,1.4131,1.4192,1.4249,1.432,1.4241,1.4356,1.436,1.4331,1.4454,1.4459,1.4565,1.442,1.4422,1.4424,0,1.3376,1.3458,1.3608,1.3702,1.3739,1.3811,1.3907,1.3982,1.4066,1.4096,1.4162,1.4187,1.4287,1.4251,1.439,1.4336,1.4386,1.4421,1.4427,1.4438,1.4396,1.4468,1.4601,1.4616,1.445,1.4448,1.4446,0,1.3431,1.358,1.3689,1.3732,1.3844,1.3895,1.3944,1.4025,1.4083,1.4167,1.4205,1.43,1.4351,1.4425,1.4475,1.4444,1.461,1.4578,1.4637,1.4636,1.467,1.4667,1.4811,1.4704,1.4704,1.4703,1.4703,0,1.3547,1.3638,1.3715,1.3782,1.3886,1.3934,1.4035,1.4086,1.4158,1.4236,1.4263,1.4336,1.4397,1.4479,1.4519,1.4628,1.4652,1.4678,1.4688,1.4675,1.4672,1.4708,1.4701,1.4708,1.4707,1.4706,1.4705,0,1.3626,1.3681,1.3802,1.3898,1.3924,1.3996,1.4079,1.4145,1.4192,1.4291,1.4317,1.4391,1.4489,1.4546,1.4669,1.4696,1.4817,1.4823,1.4787,1.4791,1.4846,1.484,1.5018,1.5044,1.492,1.4921,1.4922,0,1.3695,1.3765,1.3869,1.3923,1.3972,1.4058,1.4117,1.4169,1.4229,1.4331,1.4385,1.4484,1.4566,1.4721,1.4786,1.4881,1.489,1.4946,1.4904,1.4889,1.489,1.4884,1.4891,1.4952,1.4953,1.4954,1.4955,0,1.3812,1.3836,1.3919,1.4012,1.4081,1.4157,1.4232,1.4275,1.434,1.4406,1.4506,1.4569,1.4695,1.4793,1.4893,1.4946,1.4961,1.4968,1.4986,1.4973,1.4949,1.4962,1.4805,1.4963,1.4962,1.4962,1.4961,1.4961,1.3888,1.3951,1.4034,1.4125,1.4188,1.4258,1.4325,1.438,1.4464,1.4569,1.4595,1.47,1.4784,1.492,1.4974,1.5058,1.5048,1.5075,1.5082,1.5087,1.5088,1.4937,1.5077,1.5076,1.5076,1.5076,1.5076,0,1.4005,1.4059,1.4143,1.4248,1.432,1.4328,1.4413,1.4473,1.4564,1.464,1.472,1.4835,1.493,1.5003,1.5102,1.5154,1.5164,1.5178,1.5174,1.5186,1.5092,1.5065,1.5168,1.5168,1.5168,1.5168,1.5168,1.5168,1.4074,1.4182,1.4216,1.4355,1.441,1.4512,1.4559,1.4624,1.4685,1.4812,1.4891,1.4938,1.5013,1.5117,1.5205,1.5225,1.5259,1.5272,1.5292,1.5203,1.5192,1.5183,1.5158,1.5279,1.528,1.5379,1.538,1.5381]},{"header":{"parameterUnit":"m.s-1","parameterCategory":1,"la1":30.2991,"la2":30.254,"lo1":-89.0895,"lo2":-89.0444,"dy":0.0017,"dx":0.0017,"nx":28,"ny":28,"refTime":"2025-05-20T03:00:00:Z","depth":0,"parameterNumber":3,"parameterNumberName":"V-component_of_WINDS"},"data":[0,0,0,0,0,0,0,0,0,0,0,0,0,0,0,0,0,0,0,0,0,0,0,0,0,0,0,0,0,0,0,0,0,0,0,0,0,0,0,0,0,0,0,0,0,0,0,0,0,0,0,0,0,0,0,0,0,0,1.1341,1.1343,0,1.1501,1.1503,1.1504,1.1507,1.1505,1.1503,1.1501,1.1666,1.1672,1.1678,0,0,0,0,0,0,0,0,0,0,0,0,0,1.1036,1.1042,1.1341,1.1343,1.1345,1.15,1.1503,1.1505,1.1507,1.1505,1.1503,1.15,1.1664,1.1671,1.1678,0,0,0,0,0,0,0,0,0,0,0,0,0,1.118,1.1044,1.1341,1.1365,1.1369,1.15,1.1503,1.1505,1.1508,1.1505,1.1502,1.1499,1.1661,1.167,1.1679,1.1797,0,0,1.1708,1.1712,0,0,0,0,0,0,0,0,1.1171,1.1191,1.1359,1.1364,1.1368,1.1481,1.1455,1.1603,1.1509,1.1455,1.1501,1.1498,1.1607,1.162,1.1657,1.1805,1.1812,1.1709,1.1715,1.1719,1.1721,0,0,0,0,0,0,0,1.1162,1.1184,1.1404,1.1362,1.1367,1.1367,1.1384,1.1483,1.1546,1.146,1.146,1.1479,1.1608,1.1648,1.1661,1.1814,1.1709,1.1717,1.1723,1.1726,1.2062,1.2065,0,0,0,0,0,0,1.1147,1.1176,1.1399,1.1409,1.126,1.1375,1.1394,1.1448,1.1545,1.1557,1.1481,1.1478,1.1633,1.165,1.1666,1.1808,1.1718,1.1727,1.1733,1.2059,1.2063,1.2066,0,0,0,0,0,0,1.114,1.1167,1.1393,1.1293,1.1321,1.1384,1.1444,1.1452,1.1492,1.1561,1.1572,1.151,1.1632,1.1653,1.1763,1.1813,1.1731,1.174,1.2055,1.206,1.2064,1.2093,0,0,0,0,0,0,1.1132,1.1164,1.1211,1.1294,1.1327,1.1488,1.1447,1.1458,1.1508,1.1506,1.1591,1.1603,1.1631,1.1749,1.1773,1.1825,1.1747,1.205,1.2057,1.2063,1.2088,1.2098,1.2107,0,0,0,0,0,1.1121,1.1214,1.1213,1.124,1.1386,1.1491,1.151,1.154,1.1512,1.1558,1.1602,1.16,1.1804,1.1761,1.1787,1.1843,1.2047,1.2055,1.2062,1.2083,1.2096,1.2107,0,0,0,0,0,0,1.1137,1.1225,1.1226,1.1348,1.1412,1.1491,1.1551,1.1554,1.1627,1.1622,1.1657,1.1676,1.1785,1.1825,1.1775,1.1959,1.1922,1.1935,1.1929,1.1942,1.1951,1.1939,1.1755,0,0,0,0,0,1.1155,1.1233,1.1306,1.1407,1.1439,1.1489,1.1536,1.1553,1.1621,1.1648,1.17,1.1766,1.1844,1.1895,1.1972,1.2093,1.211,1.2144,1.2153,1.2161,1.2172,1.2234,1.2249,1.209,1.209,1.209,0,0,1.1193,1.125,1.1298,1.1411,1.1463,1.1542,1.1512,1.1598,1.1656,1.1661,1.1768,1.1808,1.1883,1.1997,1.2051,1.2034,1.2219,1.217,1.2176,1.2183,1.2243,1.2258,1.2272,1.2095,1.2095,1.2094,0,0,1.1301,1.1354,1.1442,1.1493,1.157,1.1602,1.1623,1.1702,1.1728,1.1835,1.1839,1.1908,1.2044,1.2095,1.214,1.2262,1.2262,1.2286,1.2336,1.2397,1.241,1.2421,1.2462,1.2476,1.2296,1.2297,1.2297,0,1.1339,1.1459,1.1487,1.1572,1.162,1.1626,1.1714,1.1763,1.1861,1.1894,1.1874,1.204,1.2092,1.2217,1.2246,1.2283,1.2305,1.2277,1.2406,1.2417,1.2428,1.2467,1.2483,1.2299,1.2299,1.2298,1.2298,0,1.1499,1.1581,1.1643,1.1735,1.1791,1.1877,1.1917,1.197,1.1981,1.2014,1.2121,1.2182,1.2268,1.2299,1.2313,1.2425,1.2412,1.2398,1.2362,1.2445,1.2482,1.2498,1.2302,1.2301,1.2301,1.23,0,0,1.1626,1.1729,1.1752,1.1792,1.1875,1.1939,1.2023,1.2107,1.2149,1.2216,1.2286,1.2398,1.2384,1.2434,1.2453,1.2506,1.2594,1.2485,1.2487,1.2501,1.2718,1.2727,1.2744,1.2594,1.2597,1.26,1.2711,0,1.1742,1.1892,1.1918,1.205,1.2124,1.2128,1.2201,1.2259,1.2292,1.2359,1.2395,1.2472,1.245,1.2479,1.2532,1.2573,1.2638,1.2565,1.2658,1.2661,1.2638,1.2764,1.2775,1.2877,1.2726,1.2729,1.273,0,1.1899,1.1966,1.2104,1.2173,1.2205,1.2271,1.2346,1.2411,1.2475,1.2495,1.2548,1.2559,1.2644,1.2603,1.272,1.2669,1.2708,1.2733,1.2738,1.2747,1.27,1.2775,1.2911,1.2925,1.2754,1.2752,1.2751,0,1.1974,1.21,1.2197,1.2232,1.2315,1.236,1.2397,1.2458,1.2505,1.2571,1.2601,1.2677,1.2718,1.2775,1.2805,1.2773,1.2918,1.2881,1.2935,1.2934,1.2966,1.2963,1.3108,1.2993,1.2993,1.2993,1.2992,0,1.21,1.2184,1.2231,1.2292,1.2384,1.2412,1.2502,1.2538,1.2592,1.2657,1.2666,1.2727,1.2763,1.2829,1.2852,1.2943,1.2962,1.2979,1.2984,1.2978,1.2975,1.3004,1.2997,1.2997,1.2996,1.2995,1.2994,0,1.2201,1.2236,1.2342,1.2411,1.243,1.2495,1.2553,1.261,1.264,1.2723,1.2744,1.2792,1.2869,1.2904,1.3,1.3015,1.3118,1.3119,1.3096,1.3098,1.3149,1.3143,1.3316,1.3339,1.321,1.3212,1.3213,0,1.2279,1.2343,1.2417,1.246,1.2498,1.2569,1.2616,1.2644,1.2693,1.2767,1.2815,1.2892,1.2955,1.3077,1.312,1.3192,1.3194,1.3249,1.3205,1.3195,1.3192,1.3187,1.3192,1.3258,1.3259,1.326,1.3261,0,1.2412,1.2425,1.2493,1.2565,1.2619,1.2678,1.2735,1.277,1.2807,1.286,1.2938,1.2987,1.3083,1.3158,1.3232,1.3268,1.327,1.3274,1.329,1.3284,1.3267,1.3274,1.3116,1.327,1.3269,1.3268,1.3268,1.3268,1.2503,1.2558,1.2617,1.269,1.2736,1.2787,1.2843,1.2879,1.2945,1.3024,1.3037,1.3119,1.3177,1.3276,1.3314,1.3378,1.3364,1.3388,1.3394,1.3399,1.3401,1.3257,1.3392,1.3391,1.3391,1.3391,1.3391,0,1.2635,1.2672,1.2739,1.2817,1.2873,1.2868,1.293,1.2977,1.3049,1.3103,1.3164,1.3251,1.3323,1.3369,1.3441,1.3482,1.3484,1.35,1.3497,1.3504,1.341,1.3388,1.3497,1.3497,1.3497,1.3497,1.3497,1.3497,1.271,1.2802,1.2821,1.2934,1.2971,1.3051,1.3086,1.3133,1.3175,1.3272,1.3331,1.336,1.341,1.3484,1.3549,1.356,1.3585,1.3601,1.3612,1.3523,1.3512,1.3501,1.348,1.3607,1.3607,1.37,1.3701,1.3702]}]]